Content
SEND FEEDBACK

Daily
Averages
Monthly
Summary
United States of America

ST. LOUIS, MISSOURI


Home > North America > United States > Missouri
Elevation: 535 feet     Latitude: 38 45N     Longitude: 090 22W

WEATHER
 
SELECT A DAY
Number of Records: 200,626;   Date Range: 1/1/95 - 11/26/14
 
SHARE

PRINT THIS DATA

[ ← Previous Day ]
WEATHER ALMANAC - JULY 2, 2014
[ Next Day → ]
[ °C ]   °F
Weather ElementAverageHighLow
Temperature70.3 °F77 °F (2:54 pm)61 °F (11:54 pm)
Dewpoint55.9 °F64.9 °F (2:54 am)52 °F (12:54 pm)
Humidity62.3 %90 % (2:54 am)42 % (2:54 pm)
Barometer30.00 in30.09 in (11:54 pm)29.88 in (1:54 am)
Wind Speed9.9 mph17.3 mph (11:54 am)
Wind Gust25.3 mph (11:54 am)
Weather ElementAverage
Visibility10 mi
Wind DirectionWNW (280 °)

Weather ElementTotal
Precipitation---
Cooling Degree Days4 (Base 65)
Growing Degree Days19 (Base 50)
Averaged from 23 records on July 2, 2014
WEATHER CONDITIONS BREAKOUT
WIND DIRECTION BREAKOUT
WEATHER BY HOUR - JULY 2, 2014
[ °C ]   °F
Local TimeTemperatureDewpointHumidityBarometerVisibilityWind DirectionWind SpeedGust SpeedPrecipitationEventsConditions
1:54 AM68.0 °F64.0 °F87 %29.88 in10.0 miSW (230°)5.8 mphClear
2:54 AM68.0 °F64.9 °F90 %29.90 in10.0 miWSW (250°)3.5 mphPartly Cloudy
3:54 AM66.9 °F64.0 °F90 %29.91 in10.0 miWest (260°)5.8 mphPartly Cloudy
4:54 AM66.0 °F63.0 °F90 %29.92 in10.0 miCalmClear
5:54 AM66.9 °F61.0 °F81 %29.93 in10.0 miWNW (290°)4.6 mphPartly Cloudy
6:54 AM66.9 °F57.0 °F70 %29.96 in10.0 miWNW (290°)6.9 mphMostly Cloudy
7:54 AM68.0 °F55.9 °F65 %29.97 in10.0 miWNW (300°)11.5 mphMostly Cloudy
8:54 AM69.1 °F55.9 °F63 %29.98 in10.0 miWNW (300°)13.8 mphMostly Cloudy
9:54 AM71.1 °F54.0 °F55 %29.98 in10.0 miNW (310°)13.8 mphMostly Cloudy
10:54 AM73.0 °F54.0 °F51 %30.00 in10.0 miWest (280°)13.8 mph23.0 mphScattered Clouds
11:54 AM75.0 °F53.1 °F46 %30.01 in10.0 miWNW (300°)17.3 mph25.3 mphPartly Cloudy
12:54 PM75.0 °F52.0 °F44 %30.02 in10.0 miWNW (300°)15.0 mph23.0 mphMostly Cloudy
1:54 PM75.9 °F52.0 °F43 %30.01 in10.0 miWNW (300°)16.1 mphScattered Clouds
2:54 PM77.0 °F52.0 °F42 %30.02 in10.0 miWest (270°)12.7 mphMostly Cloudy
3:54 PM77.0 °F53.6 °F44 %30.03 in10.0 miNW (310°)15.0 mph20.7 mphScattered Clouds
4:54 PM75.0 °F53.1 °F46 %30.02 in10.0 miNW (310°)11.5 mph17.3 mphOvercast
5:54 PM75.2 °F53.6 °F47 %30.04 in10.0 miNW (310°)9.2 mphOvercast
6:54 PM73.0 °F53.1 °F49 %30.02 in10.0 miWNW (300°)10.4 mph19.6 mphScattered Clouds
7:54 PM70.0 °F53.1 °F55 %30.03 in10.0 miNW (310°)8.1 mphOvercast
8:54 PM68.0 °F54.0 °F61 %30.04 in10.0 miNW (310°)8.1 mphOvercast
9:54 PM66.9 °F53.1 °F61 %30.06 in10.0 miNNW (330°)11.5 mphOvercast
10:54 PM64.0 °F55.0 °F73 %30.08 in10.0 miWNW (300°)8.1 mphScattered Clouds
11:54 PM61.0 °F55.0 °F81 %30.09 in10.0 miWest (280°)4.6 mphScattered Clouds
Hourly data recorded from KSUS, located miles away from St. Louis, Missouri







STORIES FROM OUR PARTNERS